EST,Max TemperatureF,Mean TemperatureF,Min TemperatureF,Max Dew PointF,MeanDew PointF,Min DewpointF,Max Humidity, Mean Humidity, Min Humidity, Max Sea Level PressureIn, Mean Sea Level PressureIn, Min Sea Level PressureIn, Max VisibilityMiles, Mean VisibilityMiles, Min VisibilityMiles, Max Wind SpeedMPH, Mean Wind SpeedMPH, Max Gust SpeedMPH,PrecipitationIn, CloudCover, Events, WindDirDegrees
2013-11-1,48,42,36,49,41,35,100,94,86,29.67,29.32,28.95,10,8,2,17,8,29,0.26,8,Rain,315
2013-11-2,37,34,31,35,29,25,98,83,66,30.14,29.92,29.68,10,10,10,13,6,20,0.00,7,Snow,2
2013-11-3,41,34,27,30,26,22,93,76,59,30.34,30.29,30.14,10,10,10,13,5,16,0.00,5,,115
2013-11-4,47,39,32,34,32,28,92,71,50,30.34,30.22,30.10,10,10,10,28,13,32,0.00,7,Rain,147
2013-11-5,52,46,39,43,38,34,99,77,50,30.22,30.15,30.01,10,9,2,14,8,20,0.23,4,Rain,207
2013-11-6,41,36,32,41,36,31,100,95,84,29.99,29.80,29.66,10,6,1,15,8,23,0.69,8,Rain-Snow,325
2013-11-7,36,33,31,32,31,29,99,94,84,30.03,29.99,29.93,10,6,0,14,9,23,0.06,8,Snow,258
2013-11-8,38,34,29,32,29,24,97,86,61,30.16,30.09,30.01,10,10,5,10,7,,0.00,6,Rain-Snow,227
2013-11-9,41,36,32,40,34,31,100,95,90,30.01,29.70,29.56,10,6,1,17,11,26,0.07,8,Rain-Snow,191
2013-11-10,37,34,31,35,31,28,97,89,71,30.13,29.99,29.71,10,8,2,16,11,23,0.03,7,Rain-Snow,274
2013-11-11,37,30,22,32,21,15,99,81,62,30.36,30.10,29.91,10,7,0,18,12,30,0.02,8,Snow,306
2013-11-12,25,20,15,21,16,11,93,75,60,30.50,30.43,30.36,10,9,1,14,8,24,0.00,7,Snow,279
2013-11-13,38,27,16,30,21,10,80,71,63,30.36,30.03,29.76,10,10,10,33,13,41,0.00,0,,214
2013-11-14,41,36,32,35,31,28,98,81,66,29.80,29.78,29.75,10,9,5,17,12,25,0.00,5,Rain,216
2013-11-15,48,40,32,39,35,31,98,87,67,29.89,29.83,29.77,10,8,3,15,8,20,0.00,2,,209
2013-11-16,50,44,38,49,42,37,97,93,84,29.89,29.74,29.45,10,5,2,23,12,37,0.56,6,Rain,163
2013-11-17,54,47,40,54,49,38,100,97,92,29.47,29.27,29.03,10,4,0,25,13,36,1.66,8,Fog-Rain,231
2013-11-18,39,32,26,38,27,18,96,84,71,30.08,29.62,29.15,10,6,0,30,20,41,0.01,8,Rain-Snow,290
2013-11-19,31,26,23,25,21,19,96,79,64,30.33,30.26,30.09,10,10,10,15,8,23,0.00,5,,297
2013-11-20,39,34,28,30,28,26,91,76,67,30.28,30.23,30.16,10,10,10,20,11,26,0.00,2,,153
2013-11-21,38,36,33,38,34,30,100,95,82,30.18,30.15,30.13,10,5,1,10,4,,0.04,8,Rain,204
2013-11-22,34,30,27,34,28,24,99,94,90,30.27,30.22,30.17,10,5,1,15,11,28,0.00,8,Rain-Snow,324
2013-11-23,,,,,,,,,,,,,,,,,,,,,,
2013-11-24,,,,,,,,,,,,,,,,,,,,,,
2013-11-25,,,,,,,,,,,,,,,,,,,,,,
2013-11-26,,,,,,,,,,,,,,,,,,,,,,
2013-11-27,,,,,,,,,,,,,,,,,,,,,,
2013-11-28,,,,,,,,,,,,,,,,,,,,,,
2013-11-29,,,,,,,,,,,,,,,,,,,,,,
2013-11-30,,,,,,,,,,,,,,,,,,,,,,